[[{"header":{"parameterUnit":"m.s-1","parameterCategory":1,"la1":30.2991,"la2":30.254,"lo1":-89.0895,"lo2":-89.0444,"dy":0.0017,"dx":0.0017,"nx":28,"ny":28,"refTime":"2024-07-08T03:00:00:Z","depth":0,"parameterNumber":2,"parameterNumberName":"U-component_of_WINDS"},"data":[0,0,0,0,0,0,0,0,0,0,0,0,0,0,0,0,0,0,0,0,0,0,0,0,0,0,0,0,0,0,0,0,0,0,0,0,0,0,0,0,0,0,0,0,0,0,0,0,0,0,0,0,0,0,0,0,0,0,3.3841,3.3841,0,3.3796,3.3796,3.3795,3.3721,3.3719,3.3718,3.3717,3.367,3.367,3.3671,0,0,0,0,0,0,0,0,0,0,0,0,0,3.386,3.386,3.3841,3.3841,3.384,3.3796,3.3796,3.3795,3.3721,3.3719,3.3718,3.3716,3.367,3.367,3.3671,0,0,0,0,0,0,0,0,0,0,0,0,0,3.3837,3.386,3.3841,3.3798,3.3794,3.3797,3.3796,3.3795,3.3721,3.3719,3.3717,3.3715,3.367,3.367,3.3671,3.3712,0,0,3.3671,3.3671,0,0,0,0,0,0,0,0,3.3838,3.3836,3.3805,3.3801,3.3796,3.3762,3.3785,3.3767,3.3722,3.3749,3.3717,3.3714,3.3703,3.37,3.3696,3.371,3.3708,3.3671,3.3671,3.3671,3.3671,0,0,0,0,0,0,0,3.384,3.3838,3.3824,3.3804,3.3799,3.3779,3.3774,3.3782,3.3738,3.3746,3.3741,3.3736,3.37,3.3696,3.3694,3.3708,3.3671,3.3671,3.3671,3.3671,3.3748,3.375,0,0,0,0,0,0,3.3848,3.384,3.3825,3.3822,3.3813,3.3781,3.3775,3.3775,3.3737,3.373,3.3738,3.3733,3.3697,3.3694,3.3692,3.3734,3.3671,3.3671,3.3671,3.3746,3.3749,3.3751,0,0,0,0,0,0,3.3849,3.3848,3.3827,3.3829,3.3825,3.3783,3.3784,3.3775,3.3771,3.3731,3.3723,3.3743,3.3695,3.3692,3.3707,3.3732,3.3671,3.3671,3.3744,3.3747,3.375,3.3822,0,0,0,0,0,0,3.385,3.3848,3.3865,3.383,3.3825,3.3843,3.3785,3.3776,3.3772,3.3765,3.3733,3.3726,3.3693,3.3707,3.3707,3.3731,3.3671,3.3741,3.3745,3.3749,3.3817,3.3827,3.3836,0,0,0,0,0,3.3851,3.3888,3.3866,3.3865,3.3845,3.3845,3.3842,3.3803,3.3774,3.3789,3.3763,3.3727,3.373,3.3709,3.3708,3.3733,3.3739,3.3744,3.3748,3.3813,3.3825,3.3836,0,0,0,0,0,0,3.3928,3.3883,3.3858,3.3886,3.3869,3.3832,3.385,3.3818,3.381,3.3804,3.3756,3.375,3.3769,3.3753,3.3731,3.3769,3.3729,3.3733,3.3778,3.379,3.3799,3.3801,3.3671,0,0,0,0,0,3.3948,3.3952,3.3913,3.3941,3.3933,3.3894,3.3892,3.3863,3.3845,3.3837,3.3812,3.3795,3.3791,3.379,3.3785,3.3815,3.3805,3.3832,3.3841,3.3849,3.3852,3.3862,3.3872,3.3766,3.3766,3.3765,0,0,3.399,3.3966,3.3971,3.3955,3.3939,3.3942,3.3888,3.3895,3.3896,3.3838,3.3849,3.383,3.3808,3.3829,3.3837,3.3816,3.388,3.3855,3.3861,3.386,3.3868,3.3878,3.3887,3.3769,3.3768,3.3768,0,0,3.4066,3.405,3.4069,3.4054,3.403,3.4002,3.4007,3.3974,3.3958,3.3969,3.3923,3.3924,3.3921,3.3905,3.3896,3.3963,3.3928,3.3963,3.4011,3.4021,3.4029,3.4036,3.4056,3.4064,3.3967,3.3968,3.3968,0,3.4121,3.4124,3.4083,3.4091,3.4084,3.4031,3.4048,3.4035,3.4011,3.4006,3.3984,3.3974,3.3956,3.397,3.3986,3.3983,3.3984,3.3965,3.4031,3.4038,3.4044,3.4062,3.407,3.3972,3.3971,3.3971,3.397,0,3.419,3.4193,3.4212,3.4187,3.4182,3.4196,3.4155,3.4154,3.4126,3.41,3.4109,3.4085,3.4071,3.4073,3.4047,3.4083,3.407,3.404,3.3998,3.4059,3.4075,3.4082,3.3977,3.3976,3.3975,3.3974,0,0,3.4314,3.4265,3.4272,3.4258,3.4227,3.4227,3.4237,3.4223,3.4222,3.4207,3.4211,3.4208,3.4178,3.4169,3.414,3.4149,3.4198,3.4117,3.4116,3.4129,3.4231,3.4251,3.426,3.4176,3.4177,3.4178,3.4231,0,3.438,3.4393,3.4355,3.4377,3.4377,3.4325,3.4332,3.4313,3.4289,3.4284,3.4258,3.4254,3.4219,3.4211,3.4219,3.419,3.4217,3.4187,3.4176,3.4176,3.418,3.4269,3.429,3.4342,3.4238,3.4239,3.4239,0,3.446,3.4447,3.4468,3.4431,3.443,3.4437,3.4419,3.4417,3.4392,3.4374,3.4362,3.4327,3.4331,3.4293,3.4296,3.4276,3.427,3.4255,3.4256,3.4251,3.4209,3.4262,3.4358,3.4364,3.425,3.4249,3.4248,0,3.4542,3.453,3.454,3.4531,3.4489,3.4495,3.4478,3.4451,3.4444,3.4429,3.4423,3.4409,3.44,3.4389,3.4351,3.4327,3.4357,3.4317,3.4339,3.434,3.4345,3.4345,3.4437,3.4348,3.4347,3.4347,3.4347,0,3.4619,3.4633,3.4576,3.4581,3.4594,3.455,3.4564,3.4542,3.4518,3.4517,3.4473,3.4473,3.4423,3.4417,3.4387,3.4392,3.439,3.4373,3.4364,3.4374,3.4376,3.4367,3.4361,3.4349,3.4349,3.4348,3.4348,0,3.4712,3.4675,3.4681,3.464,3.463,3.4641,3.4606,3.4608,3.4581,3.458,3.4577,3.4534,3.4524,3.4485,3.4466,3.4446,3.4459,3.4444,3.4466,3.446,3.4482,3.4479,3.457,3.4578,3.4487,3.4488,3.4489,0,3.4761,3.477,3.473,3.4725,3.471,3.4704,3.4696,3.4652,3.4645,3.4616,3.4621,3.4607,3.4594,3.458,3.4546,3.453,3.4513,3.4545,3.451,3.4519,3.4508,3.4506,3.4505,3.4552,3.4553,3.4554,3.4555,0,3.4851,3.4831,3.4821,3.4803,3.4794,3.4779,3.476,3.4759,3.471,3.4704,3.4692,3.4682,3.4661,3.4647,3.4625,3.4606,3.4571,3.4567,3.457,3.4579,3.459,3.458,3.4483,3.4564,3.4563,3.4563,3.4562,3.4562,3.4921,3.4924,3.4895,3.4884,3.4865,3.4848,3.4847,3.4819,3.4809,3.4787,3.4762,3.4753,3.4725,3.4692,3.4675,3.4666,3.4647,3.4654,3.4654,3.4656,3.4659,3.4594,3.4663,3.4662,3.4662,3.4662,3.4661,0,3.5004,3.4982,3.4973,3.4947,3.4938,3.4907,3.4884,3.4877,3.487,3.4846,3.4833,3.4818,3.4803,3.4768,3.4749,3.4748,3.4731,3.4744,3.4742,3.4737,3.4679,3.4676,3.4757,3.4757,3.4757,3.4757,3.4757,3.4757,3.5047,3.505,3.5026,3.5019,3.4997,3.4987,3.4976,3.4959,3.4939,3.4924,3.4911,3.4888,3.4858,3.4837,3.4821,3.481,3.4804,3.4821,3.4805,3.4751,3.4742,3.4733,3.4729,3.4821,3.4821,3.4863,3.4864,3.4864]},{"header":{"parameterUnit":"m.s-1","parameterCategory":1,"la1":30.2991,"la2":30.254,"lo1":-89.0895,"lo2":-89.0444,"dy":0.0017,"dx":0.0017,"nx":28,"ny":28,"refTime":"2024-07-08T03:00:00:Z","depth":0,"parameterNumber":3,"parameterNumberName":"V-component_of_WINDS"},"data":[0,0,0,0,0,0,0,0,0,0,0,0,0,0,0,0,0,0,0,0,0,0,0,0,0,0,0,0,0,0,0,0,0,0,0,0,0,0,0,0,0,0,0,0,0,0,0,0,0,0,0,0,0,0,0,0,0,0,6.4692,6.4693,0,6.478,6.4781,6.4782,6.4717,6.4714,6.4711,6.4708,6.4794,6.4799,6.4804,0,0,0,0,0,0,0,0,0,0,0,0,0,6.4461,6.4465,6.4692,6.4693,6.4694,6.478,6.4781,6.4782,6.4717,6.4714,6.471,6.4707,6.4792,6.4798,6.4804,0,0,0,0,0,0,0,0,0,0,0,0,0,6.4556,6.4467,6.4692,6.4672,6.4671,6.478,6.4781,6.4783,6.4718,6.4714,6.4709,6.4705,6.479,6.4798,6.4805,6.4936,0,0,6.4828,6.4831,0,0,0,0,0,0,0,0,6.4551,6.4565,6.4674,6.4674,6.4673,6.4733,6.4731,6.4834,6.4719,6.47,6.4708,6.4703,6.4777,6.4785,6.4811,6.494,6.4944,6.4828,6.4833,6.4836,6.4838,0,0,0,0,0,0,0,6.4544,6.4561,6.4727,6.4675,6.4675,6.4657,6.4666,6.475,6.4761,6.4701,6.4697,6.4708,6.4776,6.4804,6.4812,6.4945,6.4828,6.4835,6.4839,6.4842,6.5185,6.5189,0,0,0,0,0,0,6.454,6.4556,6.4724,6.4729,6.46,6.4664,6.4674,6.4718,6.476,6.4763,6.4712,6.4705,6.4793,6.4804,6.4815,6.4971,6.4836,6.4843,6.4847,6.518,6.5186,6.5191,0,0,0,0,0,0,6.4536,6.4556,6.472,6.4641,6.4661,6.4673,6.4723,6.4722,6.475,6.4768,6.4769,6.4739,6.479,6.4805,6.4907,6.4973,6.4846,6.4853,6.5175,6.5182,6.5188,6.5283,0,0,0,0,0,0,6.4529,6.4555,6.4606,6.4643,6.4665,6.4812,6.4727,6.4727,6.4764,6.4756,6.4794,6.4796,6.4788,6.4896,6.4914,6.4981,6.4859,6.5169,6.5178,6.5186,6.5274,6.5293,6.5308,0,0,0,0,0,6.4521,6.4629,6.4609,6.463,6.473,6.4816,6.4829,6.4819,6.4769,6.482,6.4831,6.4795,6.4963,6.4907,6.4927,6.4996,6.5165,6.5175,6.5186,6.5267,6.5289,6.5308,0,0,0,0,0,0,6.4598,6.4633,6.4612,6.4735,6.4773,6.4805,6.4869,6.4843,6.4895,6.4885,6.4868,6.4877,6.4984,6.5,6.4938,6.5125,6.5056,6.5071,6.511,6.5132,6.5148,6.5142,6.4865,0,0,0,0,0,6.463,6.4698,6.4724,6.483,6.4851,6.4857,6.4894,6.4883,6.4921,6.4936,6.4955,6.4992,6.5053,6.5093,6.5151,6.5276,6.5283,6.5334,6.5351,6.5365,6.5378,6.5444,6.5466,6.5225,6.5225,6.5225,0,0,6.4695,6.4722,6.4766,6.4846,6.4875,6.4944,6.4871,6.4947,6.4998,6.4947,6.5045,6.506,6.51,6.5214,6.5265,6.5231,6.5446,6.5378,6.5389,6.5394,6.5457,6.548,6.55,6.5232,6.5231,6.523,0,0,6.4848,6.4878,6.4968,6.4998,6.5042,6.5046,6.5067,6.5103,6.5112,6.521,6.5173,6.5232,6.5338,6.5367,6.5396,6.5561,6.5529,6.558,6.5668,6.5733,6.5752,6.5769,6.5826,6.5847,6.5593,6.5593,6.5593,0,6.4923,6.5028,6.5017,6.5097,6.5132,6.5091,6.5181,6.521,6.5271,6.5295,6.5256,6.5387,6.5412,6.5531,6.5572,6.5597,6.562,6.5575,6.575,6.5767,6.5782,6.5837,6.5858,6.5599,6.5598,6.5597,6.5597,0,6.5117,6.519,6.5258,6.5318,6.5361,6.5446,6.5446,6.549,6.5475,6.5482,6.5581,6.5609,6.567,6.5698,6.5684,6.5816,6.5793,6.5753,6.5682,6.5811,6.5862,6.5883,6.5607,6.5605,6.5603,6.5602,0,0,6.5321,6.5375,6.54,6.5426,6.5472,6.5527,6.5609,6.567,6.5708,6.575,6.5817,6.5908,6.5871,6.5904,6.5892,6.5949,6.6076,6.5902,6.5902,6.5932,6.6221,6.625,6.6274,6.6055,6.6059,6.6063,6.6217,0,6.5476,6.5621,6.5613,6.5747,6.5813,6.5775,6.5846,6.5881,6.5889,6.5945,6.5953,6.6017,6.5964,6.5984,6.6039,6.6049,6.6133,6.6038,6.6115,6.6118,6.6106,6.6301,6.6332,6.6477,6.6237,6.624,6.6243,0,6.5676,6.5727,6.5869,6.5903,6.5931,6.5995,6.605,6.6105,6.6142,6.6144,6.6182,6.6161,6.6241,6.617,6.628,6.6215,6.6246,6.6256,6.6262,6.6267,6.6188,6.6311,6.6523,6.6544,6.6274,6.6272,6.6269,0,6.5809,6.5913,6.601,6.6034,6.6078,6.6123,6.6143,6.6177,6.6214,6.6262,6.6285,6.6341,6.6372,6.6415,6.6409,6.6358,6.652,6.6449,6.6522,6.6523,6.6557,6.6555,6.6776,6.658,6.658,6.6579,6.6579,0,6.5982,6.607,6.607,6.613,6.6227,6.6216,6.6311,6.6326,6.6356,6.6417,6.6387,6.6444,6.6434,6.649,6.6486,6.6577,6.6591,6.6594,6.6591,6.6596,6.6595,6.6615,6.6604,6.6585,6.6584,6.6583,6.6582,0,6.6146,6.615,6.6254,6.6287,6.6297,6.6367,6.6394,6.645,6.6456,6.6533,6.655,6.6559,6.6624,6.6623,6.6697,6.6694,6.6805,6.6792,6.6793,6.679,6.6863,6.6855,6.7103,6.7134,6.6919,6.6921,6.6923,0,6.6255,6.6322,6.6362,6.6402,6.6425,6.6488,6.6526,6.6518,6.6558,6.6606,6.6656,6.6719,6.6768,6.6874,6.6886,6.6942,6.6929,6.7012,6.6937,6.6939,6.6928,6.6924,6.693,6.7026,6.7028,6.703,6.7032,0,6.6449,6.6447,6.6504,6.6562,6.6608,6.6653,6.6693,6.6727,6.6723,6.6769,6.6836,6.6875,6.6951,6.7013,6.7067,6.7085,6.7058,6.7056,6.7075,6.708,6.7077,6.7078,6.6831,6.705,6.7048,6.7046,6.7046,6.7045,6.6588,6.6645,6.6682,6.6745,6.6776,6.6814,6.6868,6.6881,6.6938,6.6999,6.6991,6.7065,6.71,6.717,6.7193,6.725,6.7221,6.725,6.7257,6.7264,6.7271,6.707,6.726,6.726,6.7259,6.7259,6.7258,0,6.6778,6.68,6.6859,6.6917,6.6967,6.6939,6.6982,6.7025,6.7092,6.7127,6.7177,6.7253,6.7313,6.733,6.7388,6.743,6.7419,6.7445,6.7441,6.7446,6.7295,6.7272,6.7453,6.7453,6.7453,6.7453,6.7453,6.7453,6.6883,6.6977,6.698,6.7089,6.711,6.7183,6.7211,6.7246,6.7274,6.7361,6.7411,6.7422,6.745,6.7509,6.7562,6.7566,6.7587,6.7619,6.7617,6.7476,6.7456,6.7438,6.7415,6.7624,6.7624,6.7763,6.7764,6.7765]}]]